,,Stat6,,Stat2,,Stat8,,Stat9,,Stat10,,Wind1,,Wind1,
time,status,PA1M_AVG,status,PR1M_SUM,status,RH1M_AVG,status,SR1M_AVG,status,TA1M_AVG,status,W1dAve1m,status,W1sAve1m,
2004-05-12, 00:00:00,VALID,918.364,VALID,0,VALID,95.8993,VALID,-0.0339617,VALID,21.5988,VALID,19,VALID,1.62617,
2004-05-12, 00:01:00,VALID,918.353,VALID,0,VALID,95.8497,VALID,-0.0169808,VALID,21.6023,VALID,14,VALID,1.86986,
2004-05-12, 00:02:00,VALID,918.311,VALID,0,VALID,95.8065,VALID,-0.0169808,VALID,21.5888,VALID,16,VALID,1.81789,
2004-05-12, 00:03:00,VALID,918.308,VALID,0,VALID,95.7595,VALID,-0.0339617,VALID,21.6023,VALID,356,VALID,0.757292,
2004-05-12, 00:04:00,VALID,918.31,VALID,0,VALID,95.6298,VALID,-0.0339617,VALID,21.6055,VALID,35,VALID,0.556463,
2004-05-12, 00:05:00,VALID,918.309,VALID,0,VALID,95.6298,VALID,-0.0849042,VALID,21.6158,VALID,1,VALID,0.499467,
2004-05-12, 00:06:00,VALID,918.309,VALID,0,VALID,95.5611,VALID,-0.0509425,VALID,21.6384,VALID,130,VALID,0.376243,
2004-05-12, 00:07:00,VALID,918.289,VALID,0,VALID,95.3576,VALID,-0.0339617,VALID,21.6023,VALID,197,VALID,1.67642,
2004-05-12, 00:08:00,VALID,918.313,VALID,0,VALID,95.425,VALID,-0.0509425,VALID,21.5444,VALID,338,VALID,0.888139,
2004-05-12, 00:09:00,VALID,918.314,VALID,0,VALID,95.7048,VALID,-0.0679233,VALID,21.5344,VALID,21,VALID,0.430753,
2004-05-12, 00:10:00,VALID,918.273,VALID,0,VALID,95.6768,VALID,-0.0339617,VALID,21.5371,VALID,24,VALID,0.249818,
2004-05-12, 00:11:00,VALID,918.28,VALID,0,VALID,95.7633,VALID,-0.0339617,VALID,21.5441,VALID,30,VALID,0.303571,
2004-05-12, 00:12:00,VALID,918.264,VALID,0,VALID,95.6933,VALID,-0.0339617,VALID,21.5339,VALID,43,VALID,1.00521,
2004-05-12, 00:13:00,VALID,918.26,VALID,0,VALID,95.7595,VALID,-0.0169808,VALID,21.5444,VALID,14,VALID,0.650112,
2004-05-12, 00:14:00,VALID,918.258,VALID,0,VALID,95.6654,VALID,-0.0339617,VALID,21.5406,VALID,90,VALID,0.622456,
2004-05-12, 00:15:00,VALID,918.261,VALID,0,VALID,95.556,VALID,-0.0339617,VALID,21.5409,VALID,116,VALID,0.99343,
2004-05-12, 00:16:00,VALID,918.259,VALID,0,VALID,95.6565,VALID,-0.0169808,VALID,21.5406,VALID,355,VALID,0.726563,
2004-05-12, 00:17:00,VALID,918.28,VALID,0,VALID,95.6781,VALID,-0.0509425,VALID,21.5312,VALID,352,VALID,0.258152,
2004-05-12, 00:18:00,VALID,918.286,VALID,0,VALID,95.7582,VALID,-0.0509425,VALID,21.5277,VALID,347,VALID,0.017721,
2004-05-12, 00:19:00,VALID,918.283,VALID,0,VALID,95.7823,VALID,0.0169808,VALID,21.5342,VALID,19,VALID,0.698289,
2004-05-12, 00:20:00,VALID,918.242,VALID,0,VALID,95.7226,VALID,-0.0509425,VALID,21.5476,VALID,48,VALID,0.679287,
2004-05-12, 00:21:00,VALID,918.218,VALID,0,VALID,95.6208,VALID,0,VALID,21.5441,VALID,53,VALID,0.622024,
2004-05-12, 00:22:00,VALID,918.195,VALID,0,VALID,95.4721,VALID,0,VALID,21.518,VALID,328,VALID,0.808117,
2004-05-12, 00:23:00,VALID,918.187,VALID,0,VALID,95.701,VALID,0,VALID,21.4951,VALID,20,VALID,1.30487,
2004-05-12, 00:24:00,VALID,918.182,VALID,0,VALID,95.7582,VALID,0,VALID,21.4919,VALID,343,VALID,0.796148,
2004-05-12, 00:25:00,VALID,918.19,VALID,0,VALID,95.6577,VALID,0,VALID,21.5027,VALID,237,VALID,0.239769,
2004-05-12, 00:26:00,VALID,918.159,VALID,0,VALID,95.6654,VALID,0,VALID,21.4922,VALID,240,VALID,0.155887,
2004-05-12, 00:27:00,VALID,918.126,VALID,0,VALID,95.6908,VALID,-0.0169808,VALID,21.4984,VALID,8,VALID,0.383575,
2004-05-12, 00:28:00,VALID,918.096,VALID,0,VALID,95.5916,VALID,-0.0169808,VALID,21.5051,VALID,23,VALID,0.931504,
2004-05-12, 00:29:00,VALID,918.059,VALID,0,VALID,95.6806,VALID,-0.0169808,VALID,21.5212,VALID,15,VALID,0.446456,
2004-05-12, 00:30:00,VALID,918.036,VALID,0,VALID,95.6488,VALID,-0.0339617,VALID,21.5177,VALID,15,VALID,0.0679506,
2004-05-12, 00:31:00,VALID,917.997,VALID,0,VALID,95.6539,VALID,0,VALID,21.511,VALID,16,VALID,0.594893,
2004-05-12, 00:32:00,VALID,918.004,VALID,0,VALID,95.7582,VALID,-0.0169808,VALID,21.518,VALID,13,VALID,0.445884,
2004-05-12, 00:33:00,VALID,918.006,VALID,0,VALID,95.6539,VALID,0,VALID,21.5215,VALID,12,VALID,0.686133,
2004-05-12, 00:34:00,VALID,917.992,VALID,0,VALID,95.6933,VALID,-0.0169808,VALID,21.4819,VALID,32,VALID,0.509266,
2004-05-12, 00:35:00,VALID,917.958,VALID,0,VALID,95.7951,VALID,0.0169808,VALID,21.4696,VALID,24,VALID,0.730378,
2004-05-12, 00:36:00,VALID,917.934,VALID,0,VALID,95.8523,VALID,0.0169808,VALID,21.4666,VALID,22,VALID,0.600074,
2004-05-12, 00:37:00,VALID,917.926,VALID,0,VALID,95.7315,VALID,0,VALID,21.4278,VALID,11,VALID,0.807575,
2004-05-12, 00:38:00,VALID,917.924,VALID,0,VALID,95.6043,VALID,0,VALID,21.4017,VALID,30,VALID,0.858817,
2004-05-12, 00:39:00,VALID,917.916,VALID,0,VALID,95.7391,VALID,0,VALID,21.3888,VALID,24,VALID,0.376116,
2004-05-12, 00:40:00,VALID,917.917,VALID,0,VALID,95.8408,VALID,0,VALID,21.3958,VALID,14,VALID,0.794336,
2004-05-12, 00:41:00,VALID,917.909,VALID,0,VALID,95.8434,VALID,-0.0169808,VALID,21.405,VALID,12,VALID,0.182355,
2004-05-12, 00:42:00,VALID,917.904,VALID,0,VALID,95.8561,VALID,0,VALID,21.4117,VALID,12,VALID,0.0919471,
2004-05-12, 00:43:00,VALID,917.874,VALID,0,VALID,95.8777,VALID,0,VALID,21.412,VALID,12,VALID,0.205433,
2004-05-12, 00:44:00,VALID,917.845,VALID,0,VALID,95.8523,VALID,0,VALID,21.402,VALID,10,VALID,0.741832,
2004-05-12, 00:45:00,VALID,917.812,VALID,0,VALID,95.851,VALID,0,VALID,21.3955,VALID,10,VALID,0.335938,
2004-05-12, 00:46:00,VALID,917.79,VALID,0,VALID,95.8777,VALID,0,VALID,21.4055,VALID,10,VALID,0.0859375,
2004-05-12, 00:47:00,VALID,917.781,VALID,0,VALID,95.7162,VALID,0,VALID,21.4087,VALID,10,VALID,0.127404,
2004-05-12, 00:48:00,VALID,917.753,VALID,0,VALID,95.598,VALID,0.0169808,VALID,21.4114,VALID,48,VALID,0.285156,
2004-05-12, 00:49:00,VALID,917.693,VALID,0,VALID,95.4199,VALID,0,VALID,21.4023,VALID,118,VALID,0.918285,
2004-05-12, 00:50:00,VALID,917.64,VALID,0,VALID,95.631,VALID,-0.0169808,VALID,21.3821,VALID,339,VALID,0.581659,
2004-05-12, 00:51:00,VALID,917.582,VALID,0,VALID,95.5865,VALID,0,VALID,21.3891,VALID,21,VALID,1.29097,
2004-05-12, 00:52:00,VALID,917.586,VALID,0,VALID,95.5929,VALID,0,VALID,21.3918,VALID,15,VALID,0.561257,
2004-05-12, 00:53:00,VALID,917.56,VALID,0,VALID,95.6272,VALID,0,VALID,21.4181,VALID,63,VALID,0.244606,
2004-05-12, 00:54:00,VALID,917.543,VALID,0,VALID,95.6984,VALID,0,VALID,21.4243,VALID,21,VALID,0.540396,
2004-05-12, 00:55:00,VALID,917.501,VALID,0,VALID,95.5585,VALID,0,VALID,21.4246,VALID,348,VALID,0.604911,
2004-05-12, 00:56:00,VALID,917.505,VALID,0,VALID,95.4543,VALID,0,VALID,21.3853,VALID,15,VALID,0.545351,
2004-05-12, 00:57:00,VALID,917.475,VALID,0,VALID,95.4861,VALID,0,VALID,21.3759,VALID,70,VALID,0.720567,
2004-05-12, 00:58:00,VALID,917.434,VALID,0,VALID,95.6921,VALID,0,VALID,21.357,VALID,39,VALID,0.578697,
2004-05-12, 00:59:00,VALID,917.449,VALID,0,VALID,95.9108,VALID,-0.0169808,VALID,21.3401,VALID,9,VALID,0.360102,
2004-05-12, 01:00:00,VALID,917.442,VALID,0,VALID,95.9146,VALID,-0.0169808,VALID,21.3406,VALID,352,VALID,0.583854,
2004-05-12, 01:01:00,VALID,917.435,VALID,0,VALID,95.907,VALID,0.0169808,VALID,21.3309,VALID,312,VALID,0.935192,
2004-05-12, 01:02:00,VALID,917.425,VALID,0,VALID,96.0748,VALID,0,VALID,21.3603,VALID,18,VALID,0.517987,
2004-05-12, 01:03:00,VALID,917.441,VALID,0,VALID,95.9057,VALID,0,VALID,21.3562,VALID,342,VALID,0.542302,
2004-05-12, 01:04:00,VALID,917.426,VALID,0,VALID,95.9489,VALID,-0.0169808,VALID,21.3727,VALID,351,VALID,0.702446,
2004-05-12, 01:05:00,VALID,917.433,VALID,0,VALID,95.9756,VALID,-0.0169808,VALID,21.3756,VALID,326,VALID,0.244549,
2004-05-12, 01:06:00,VALID,917.447,VALID,0,VALID,95.9044,VALID,-0.0169808,VALID,21.3858,VALID,258,VALID,0.584847,
2004-05-12, 01:07:00,VALID,917.424,VALID,0,VALID,95.2267,VALID,0,VALID,21.3729,VALID,265,VALID,0.658736,
2004-05-12, 01:08:00,VALID,917.426,VALID,0,VALID,95.481,VALID,0.0169808,VALID,21.3888,VALID,99,VALID,0.496652,
2004-05-12, 01:09:00,VALID,917.429,VALID,0,VALID,95.4365,VALID,0,VALID,21.4055,VALID,241,VALID,0.553385,
2004-05-12, 01:10:00,VALID,917.395,VALID,0,VALID,95.4428,VALID,0.0169808,VALID,21.3985,VALID,308,VALID,0.479167,
2004-05-12, 01:11:00,VALID,917.378,VALID,0,VALID,94.5947,VALID,-0.0169808,VALID,21.3632,VALID,281,VALID,0.645139,
2004-05-12, 01:12:00,VALID,917.375,VALID,0,VALID,95.1885,VALID,-0.0169808,VALID,21.3888,VALID,12,VALID,0.745739,
2004-05-12, 01:13:00,VALID,917.363,VALID,0,VALID,95.1758,VALID,0,VALID,21.3794,VALID,263,VALID,0.276101,
2004-05-12, 01:14:00,VALID,917.338,VALID,0,VALID,95.2572,VALID,0,VALID,21.357,VALID,263,VALID,0.00247713,
2004-05-12, 01:15:00,VALID,917.321,VALID,0,VALID,95.6145,VALID,0,VALID,21.3533,VALID,263,VALID,0.0392485,
2004-05-12, 01:16:00,VALID,917.279,VALID,0,VALID,95.5725,VALID,0,VALID,21.36,VALID,263,VALID,0.0621189,
2004-05-12, 01:17:00,VALID,917.247,VALID,0,VALID,95.6857,VALID,0,VALID,21.3568,VALID,298,VALID,0.201562,
2004-05-12, 01:18:00,VALID,917.232,VALID,0,VALID,95.809,VALID,0,VALID,21.3503,VALID,343,VALID,0.175586,
2004-05-12, 01:19:00,VALID,917.199,VALID,0,VALID,95.8408,VALID,-0.0339617,VALID,21.3307,VALID,38,VALID,0.928571,
2004-05-12, 01:20:00,VALID,917.179,VALID,0,VALID,96.4118,VALID,-0.0509425,VALID,21.3535,VALID,7,VALID,0.77763,
2004-05-12, 01:21:00,VALID,917.152,VALID,0,VALID,96.5529,VALID,-0.0509425,VALID,21.3473,VALID,16,VALID,1.08708,
2004-05-12, 01:22:00,VALID,917.119,VALID,0,VALID,96.7449,VALID,-0.0509425,VALID,21.3183,VALID,14,VALID,1.45948,
2004-05-12, 01:23:00,VALID,917.099,VALID,0,VALID,96.8187,VALID,-0.0509425,VALID,21.2862,VALID,17,VALID,1.41243,
2004-05-12, 01:24:00,VALID,917.093,VALID,0,VALID,96.8759,VALID,-0.0509425,VALID,21.2631,VALID,26,VALID,1.1557,
2004-05-12, 01:25:00,VALID,917.066,VALID,0,VALID,96.6559,VALID,-0.0509425,VALID,21.238,VALID,19,VALID,1.10352,
2004-05-12, 01:26:00,VALID,917.053,VALID,0,VALID,96.9548,VALID,0,VALID,21.2189,VALID,22,VALID,1.84738,
2004-05-12, 01:27:00,VALID,917.058,VALID,0,VALID,97.0781,VALID,-0.0509425,VALID,21.202,VALID,24,VALID,1.32195,
2004-05-12, 01:28:00,VALID,917.079,VALID,0,VALID,97.0743,VALID,-0.0509425,VALID,21.1923,VALID,25,VALID,0.732118,
2004-05-12, 01:29:00,VALID,917.071,VALID,0,VALID,96.9649,VALID,-0.0169808,VALID,21.195,VALID,19,VALID,1.07763,
2004-05-12, 01:30:00,VALID,917.098,VALID,0,VALID,96.8708,VALID,-0.0509425,VALID,21.1761,VALID,18,VALID,0.860283,
2004-05-12, 01:31:00,VALID,917.094,VALID,0,VALID,96.9052,VALID,-0.0169808,VALID,21.157,VALID,19,VALID,1.54601,
2004-05-12, 01:32:00,VALID,917.115,VALID,0,VALID,97.0921,VALID,-0.0169808,VALID,21.1506,VALID,28,VALID,1.23247,
2004-05-12, 01:33:00,VALID,917.123,VALID,0,VALID,97.0336,VALID,0,VALID,21.1277,VALID,26,VALID,0.863477,
2004-05-12, 01:34:00,VALID,917.139,VALID,0,VALID,97.1328,VALID,0,VALID,21.1247,VALID,23,VALID,1.13691,
2004-05-12, 01:35:00,VALID,917.151,VALID,0,VALID,97.1875,VALID,-0.0339617,VALID,21.1056,VALID,317,VALID,0.850391,
2004-05-12, 01:36:00,VALID,917.158,VALID,0,VALID,97.2167,VALID,0,VALID,21.0922,VALID,37,VALID,0.638081,
2004-05-12, 01:37:00,VALID,917.151,VALID,0,VALID,97.2956,VALID,0,VALID,21.0951,VALID,12,VALID,0.808594,
2004-05-12, 01:38:00,VALID,917.149,VALID,0,VALID,97.2714,VALID,-0.0339617,VALID,21.0854,VALID,32,VALID,0.948661,
2004-05-12, 01:39:00,VALID,917.151,VALID,0,VALID,97.3579,VALID,0,VALID,21.0956,VALID,5,VALID,0.54633,
2004-05-12, 01:40:00,VALID,917.138,VALID,0,VALID,97.3083,VALID,-0.0339617,VALID,21.1088,VALID,27,VALID,0.914595,
2004-05-12, 01:41:00,VALID,917.136,VALID,0,VALID,97.3388,VALID,0,VALID,21.0951,VALID,15,VALID,0.670351,
2004-05-12, 01:42:00,VALID,917.147,VALID,0,VALID,97.3706,VALID,-0.0339617,VALID,21.0919,VALID,17,VALID,0.325863,
2004-05-12, 01:43:00,VALID,917.132,VALID,0,VALID,97.3668,VALID,-0.0339617,VALID,21.1083,VALID,22,VALID,0.547061,
2004-05-12, 01:44:00,VALID,917.102,VALID,0,VALID,97.3553,VALID,-0.0339617,VALID,21.1115,VALID,16,VALID,1.20998,
2004-05-12, 01:45:00,VALID,917.095,VALID,0,VALID,97.3858,VALID,0,VALID,21.1183,VALID,32,VALID,1.14386,
2004-05-12, 01:46:00,VALID,917.099,VALID,0,VALID,97.4303,VALID,-0.0169808,VALID,21.1344,VALID,356,VALID,0.472384,
2004-05-12, 01:47:00,VALID,917.091,VALID,0,VALID,97.2739,VALID,-0.0169808,VALID,21.1277,VALID,293,VALID,0.471726,
2004-05-12, 01:48:00,VALID,917.074,VALID,0,VALID,97.2536,VALID,-0.0339617,VALID,21.1376,VALID,244,VALID,0.651042,
2004-05-12, 01:49:00,VALID,917.094,VALID,0,VALID,97.3312,VALID,0,VALID,21.1406,VALID,319,VALID,0.460211,
2004-05-12, 01:50:00,VALID,917.101,VALID,0,VALID,97.6796,VALID,0,VALID,21.1891,VALID,346,VALID,0.645198,
2004-05-12, 01:51:00,VALID,917.077,VALID,0,VALID,97.6122,VALID,-0.0169808,VALID,21.2025,VALID,18,VALID,0.786644,
2004-05-12, 01:52:00,VALID,917.064,VALID,0,VALID,97.4316,VALID,-0.0169808,VALID,21.1799,VALID,25,VALID,0.657315,
2004-05-12, 01:53:00,VALID,917.046,VALID,0,VALID,97.5346,VALID,-0.0169808,VALID,21.1734,VALID,22,VALID,0.226744,
2004-05-12, 01:54:00,VALID,917.038,VALID,0,VALID,97.644,VALID,-0.0339617,VALID,21.1799,VALID,18,VALID,0.731771,
2004-05-12, 01:55:00,VALID,917.032,VALID,0,VALID,97.7279,VALID,-0.0339617,VALID,21.1864,VALID,35,VALID,0.965402,
2004-05-12, 01:56:00,VALID,916.999,VALID,0,VALID,97.7241,VALID,-0.0509425,VALID,21.1761,VALID,46,VALID,0.6008,
2004-05-12, 01:57:00,VALID,916.983,VALID,0,VALID,97.677,VALID,-0.0509425,VALID,21.1729,VALID,46,VALID,0.576736,
2004-05-12, 01:58:00,VALID,916.966,VALID,0,VALID,97.8411,VALID,-0.0169808,VALID,21.1961,VALID,44,VALID,0.268466,
2004-05-12, 01:59:00,VALID,916.953,VALID,0,VALID,97.6338,VALID,0,VALID,21.1732,VALID,90,VALID,0.405705,
2004-05-12, 02:00:00,VALID,916.94,VALID,0,VALID,97.5817,VALID,-0.0169808,VALID,21.1608,VALID,7,VALID,1.27743,
2004-05-12, 02:01:00,VALID,916.927,VALID,0,VALID,97.9237,VALID,0,VALID,21.1506,VALID,31,VALID,0.869226,
2004-05-12, 02:02:00,VALID,916.915,VALID,0,VALID,98.1882,VALID,-0.0679233,VALID,21.1667,VALID,24,VALID,0.497569,
2004-05-12, 02:03:00,VALID,916.885,VALID,0,VALID,98.1984,VALID,-0.0679233,VALID,21.1767,VALID,23,VALID,0.637767,
2004-05-12, 02:04:00,VALID,916.874,VALID,0,VALID,98.1285,VALID,0.0509425,VALID,21.1587,VALID,10,VALID,0.550495,
2004-05-12, 02:05:00,VALID,916.845,VALID,0,VALID,98.1653,VALID,0.101885,VALID,21.1455,VALID,22,VALID,0.317116,
2004-05-12, 02:06:00,VALID,916.83,VALID,0,VALID,98.3205,VALID,0.101885,VALID,21.1355,VALID,22,VALID,0.198103,
2004-05-12, 02:07:00,VALID,916.796,VALID,0,VALID,98.0115,VALID,0.101885,VALID,21.1102,VALID,292,VALID,0.819247,
2004-05-12, 02:08:00,VALID,916.778,VALID,0,VALID,98.1552,VALID,0.0849042,VALID,21.0841,VALID,285,VALID,0.23402,
2004-05-12, 02:09:00,VALID,916.78,VALID,0,VALID,98.3802,VALID,0.101885,VALID,21.1072,VALID,298,VALID,0.751215,
2004-05-12, 02:10:00,VALID,916.778,VALID,0,VALID,98.1234,VALID,0.0849042,VALID,21.0712,VALID,289,VALID,0.821615,
2004-05-12, 02:11:00,VALID,916.761,VALID,0,VALID,98.2543,VALID,0.0849042,VALID,21.0776,VALID,17,VALID,0.697088,
2004-05-12, 02:12:00,VALID,916.731,VALID,0,VALID,98.3052,VALID,0.101885,VALID,21.0747,VALID,30,VALID,0.656068,
2004-05-12, 02:13:00,VALID,916.712,VALID,0,VALID,98.3637,VALID,0.0849042,VALID,21.0782,VALID,26,VALID,0.542708,
2004-05-12, 02:14:00,VALID,916.688,VALID,0,VALID,98.5036,VALID,0.0849042,VALID,21.0938,VALID,21,VALID,0.256882,
2004-05-12, 02:15:00,VALID,916.66,VALID,0,VALID,98.4196,VALID,0.0849042,VALID,21.0809,VALID,12,VALID,0.559443,
2004-05-12, 02:16:00,VALID,916.648,VALID,0,VALID,98.4629,VALID,0.0679233,VALID,21.0782,VALID,23,VALID,0.780506,
2004-05-12, 02:17:00,VALID,916.63,VALID,0,VALID,98.515,VALID,0.101885,VALID,21.0687,VALID,27,VALID,1.16172,
2004-05-12, 02:18:00,VALID,916.618,VALID,0,VALID,98.6028,VALID,0.0679233,VALID,21.0677,VALID,166,VALID,0.293341,
2004-05-12, 02:19:00,VALID,916.62,VALID,0,VALID,98.7121,VALID,0,VALID,21.0895,VALID,193,VALID,0.0651677,
2004-05-12, 02:20:00,VALID,916.623,VALID,0,VALID,98.6333,VALID,-0.0339617,VALID,21.0827,VALID,163,VALID,0.20122,
2004-05-12, 02:21:00,VALID,916.628,VALID,0,VALID,98.5023,VALID,-0.0169808,VALID,21.0865,VALID,69,VALID,0.465511,
2004-05-12, 02:22:00,VALID,916.641,VALID,0,VALID,98.5455,VALID,-0.0169808,VALID,21.0865,VALID,87,VALID,0.231771,
2004-05-12, 02:23:00,VALID,916.656,VALID,0,VALID,98.6562,VALID,-0.0339617,VALID,21.0959,VALID,192,VALID,0.38519,
2004-05-12, 02:24:00,VALID,916.669,VALID,0.2,VALID,98.66,VALID,-0.0509425,VALID,21.1024,VALID,166,VALID,0.255335,
2004-05-12, 02:25:00,VALID,916.689,VALID,0,VALID,98.6562,VALID,-0.0339617,VALID,21.1056,VALID,204,VALID,0.52468,
2004-05-12, 02:26:00,VALID,916.698,VALID,0.2,VALID,98.5697,VALID,-0.0169808,VALID,21.0833,VALID,229,VALID,0.762195,
2004-05-12, 02:27:00,VALID,916.714,VALID,0.2,VALID,98.5315,VALID,-0.0339617,VALID,21.0308,VALID,249,VALID,0.614025,
2004-05-12, 02:28:00,VALID,916.72,VALID,0,VALID,98.7108,VALID,-0.0339617,VALID,21.0281,VALID,240,VALID,0.137091,
2004-05-12, 02:29:00,VALID,916.714,VALID,0.4,VALID,98.9664,VALID,0,VALID,21.0475,VALID,327,VALID,0.537997,
2004-05-12, 02:30:00,VALID,916.709,VALID,0.2,VALID,99.133,VALID,0,VALID,21.0639,VALID,29,VALID,0.724085,
2004-05-12, 02:31:00,VALID,916.687,VALID,0.4,VALID,99.2856,VALID,0,VALID,21.0728,VALID,30,VALID,0.576853,
2004-05-12, 02:32:00,VALID,916.678,VALID,0.2,VALID,99.3441,VALID,-0.0339617,VALID,21.0822,VALID,18,VALID,0.802827,
2004-05-12, 02:33:00,VALID,916.647,VALID,0.2,VALID,99.3683,VALID,-0.0339617,VALID,21.0768,VALID,30,VALID,0.671875,
2004-05-12, 02:34:00,VALID,916.623,VALID,0.4,VALID,99.4585,VALID,0,VALID,21.0666,VALID,25,VALID,1.07385,
2004-05-12, 02:35:00,VALID,916.58,VALID,0.4,VALID,99.4891,VALID,-0.0509425,VALID,21.0636,VALID,346,VALID,0.70258,
2004-05-12, 02:36:00,VALID,916.561,VALID,0,VALID,99.3924,VALID,-0.0169808,VALID,21.0278,VALID,208,VALID,0.97691,
2004-05-12, 02:37:00,VALID,916.547,VALID,0.2,VALID,99.3428,VALID,-0.0509425,VALID,20.9823,VALID,188,VALID,1.06318,
2004-05-12, 02:38:00,VALID,916.547,VALID,0,VALID,99.3606,VALID,-0.0169808,VALID,20.9438,VALID,248,VALID,0.530717,
2004-05-12, 02:39:00,VALID,916.541,VALID,0.2,VALID,99.3085,VALID,-0.0339617,VALID,20.9183,VALID,269,VALID,0.431686,
2004-05-12, 02:40:00,VALID,916.58,VALID,0,VALID,99.4229,VALID,-0.0679233,VALID,20.9083,VALID,66,VALID,0.486583,
2004-05-12, 02:41:00,VALID,916.602,VALID,0.2,VALID,99.4624,VALID,-0.0169808,VALID,20.9212,VALID,209,VALID,1.23183,
2004-05-12, 02:42:00,VALID,916.571,VALID,0.2,VALID,99.4585,VALID,-0.0679233,VALID,20.8857,VALID,238,VALID,1.31889,
2004-05-12, 02:43:00,VALID,916.538,VALID,0.2,VALID,99.4598,VALID,-0.0509425,VALID,20.8539,VALID,245,VALID,1.13789,
2004-05-12, 02:44:00,VALID,916.559,VALID,0.2,VALID,99.5844,VALID,-0.0339617,VALID,20.8378,VALID,344,VALID,1.37667,
2004-05-12, 02:45:00,VALID,916.546,VALID,0.2,VALID,99.8349,VALID,-0.0339617,VALID,20.8728,VALID,26,VALID,1.83125,
2004-05-12, 02:46:00,VALID,916.591,VALID,0.2,VALID,99.7574,VALID,-0.0509425,VALID,20.8502,VALID,201,VALID,1.26963,
2004-05-12, 02:47:00,VALID,916.578,VALID,0.4,VALID,99.7408,VALID,-0.0169808,VALID,20.8179,VALID,136,VALID,0.82431,
2004-05-12, 02:48:00,VALID,916.515,VALID,0,VALID,99.8629,VALID,-0.0679233,VALID,20.8278,VALID,26,VALID,3.31432,
2004-05-12, 02:49:00,VALID,916.6,VALID,0.2,VALID,99.882,VALID,-0.0169808,VALID,20.8308,VALID,72,VALID,1.04439,
2004-05-12, 02:50:00,VALID,916.62,VALID,0,VALID,99.8095,VALID,-0.0339617,VALID,20.8049,VALID,190,VALID,0.644817,
2004-05-12, 02:51:00,VALID,916.607,VALID,0,VALID,99.8133,VALID,-0.0339617,VALID,20.7761,VALID,16,VALID,1.04192,
2004-05-12, 02:52:00,VALID,916.652,VALID,0.2,VALID,99.7815,VALID,-0.0169808,VALID,20.7498,VALID,291,VALID,0.814708,
2004-05-12, 02:53:00,VALID,916.693,VALID,0,VALID,99.8184,VALID,-0.0169808,VALID,20.7597,VALID,193,VALID,0.920508,
2004-05-12, 02:54:00,VALID,916.677,VALID,0,VALID,99.8477,VALID,0,VALID,20.757,VALID,138,VALID,0.75,
2004-05-12, 02:55:00,VALID,916.682,VALID,0,VALID,99.929,VALID,0,VALID,20.7535,VALID,354,VALID,0.313453,
2004-05-12, 02:56:00,VALID,916.677,VALID,0,VALID,99.9705,VALID,0,VALID,20.7568,VALID,309,VALID,0.714844,
2004-05-12, 02:57:00,VALID,916.695,VALID,0,VALID,99.9278,VALID,0.0169808,VALID,20.7239,VALID,261,VALID,0.591654,
2004-05-12, 02:58:00,VALID,916.705,VALID,0,VALID,99.998,VALID,0,VALID,20.7535,VALID,239,VALID,0.671503,
2004-05-12, 02:59:00,VALID,916.712,VALID,0.2,VALID,99.9367,VALID,0,VALID,20.7376,VALID,208,VALID,1.07191,
2004-05-12, 03:00:00,VALID,916.709,VALID,0,VALID,99.9049,VALID,0,VALID,20.7115,VALID,310,VALID,1.47805,
2004-05-12, 03:01:00,VALID,916.749,VALID,0,VALID,99.988,VALID,-0.0339617,VALID,20.7411,VALID,304,VALID,0.71131,
2004-05-12, 03:02:00,VALID,916.758,VALID,0,VALID,100,VALID,-0.0169808,VALID,20.7371,VALID,317,VALID,0.638393,
2004-05-12, 03:03:00,VALID,916.74,VALID,0,VALID,100,VALID,-0.0339617,VALID,20.7471,VALID,26,VALID,1.63802,
2004-05-12, 03:04:00,VALID,916.762,VALID,0,VALID,99.9647,VALID,0,VALID,20.7406,VALID,202,VALID,1.08079,
2004-05-12, 03:05:00,VALID,916.764,VALID,0,VALID,99.9858,VALID,-0.0169808,VALID,20.75,VALID,284,VALID,0.844295,
2004-05-12, 03:06:00,VALID,916.83,VALID,0,VALID,100,VALID,-0.0169808,VALID,20.7893,VALID,34,VALID,1.09357,
2004-05-12, 03:07:00,VALID,916.816,VALID,0,VALID,100,VALID,0,VALID,20.8149,VALID,45,VALID,1.07594,
2004-05-12, 03:08:00,VALID,916.836,VALID,0,VALID,100,VALID,0,VALID,20.7982,VALID,17,VALID,0.416969,
2004-05-12, 03:09:00,VALID,916.829,VALID,0,VALID,100,VALID,-0.0339617,VALID,20.7918,VALID,351,VALID,0.239169,
2004-05-12, 03:10:00,VALID,916.793,VALID,0,VALID,100,VALID,-0.0169808,VALID,20.8017,VALID,151,VALID,0.423828,
2004-05-12, 03:11:00,VALID,916.785,VALID,0,VALID,100,VALID,-0.0169808,VALID,20.8219,VALID,105,VALID,0.486281,
2004-05-12, 03:12:00,VALID,916.804,VALID,0,VALID,100,VALID,-0.0679233,VALID,20.8214,VALID,36,VALID,0.60293,
2004-05-12, 03:13:00,VALID,916.81,VALID,0,VALID,100,VALID,-0.0509425,VALID,20.8254,VALID,239,VALID,0.610577,
2004-05-12, 03:14:00,VALID,916.81,VALID,0,VALID,100,VALID,-0.0339617,VALID,20.8375,VALID,336,VALID,0.50799,
2004-05-12, 03:15:00,VALID,916.822,VALID,0,VALID,100,VALID,-0.0169808,VALID,20.8795,VALID,19,VALID,0.883743,
2004-05-12, 03:16:00,VALID,916.835,VALID,0,VALID,100,VALID,-0.0169808,VALID,20.8959,VALID,36,VALID,1.05022,
2004-05-12, 03:17:00,VALID,916.887,VALID,0,VALID,100,VALID,-0.0169808,VALID,20.9083,VALID,312,VALID,0.678052,
2004-05-12, 03:18:00,VALID,916.879,VALID,0,VALID,100,VALID,0,VALID,20.9056,VALID,200,VALID,0.427951,
2004-05-12, 03:19:00,VALID,916.906,VALID,0,VALID,100,VALID,-0.0169808,VALID,20.9145,VALID,338,VALID,0.396723,
2004-05-12, 03:20:00,VALID,916.911,VALID,0,VALID,100,VALID,0,VALID,20.8921,VALID,273,VALID,0.423573,
2004-05-12, 03:21:00,VALID,916.893,VALID,0,VALID,100,VALID,-0.0339617,VALID,20.8954,VALID,246,VALID,0.503534,
2004-05-12, 03:22:00,VALID,916.888,VALID,0,VALID,100,VALID,-0.0509425,VALID,20.8894,VALID,19,VALID,0.739169,
2004-05-12, 03:23:00,VALID,916.896,VALID,0,VALID,100,VALID,-0.0169808,VALID,20.9024,VALID,11,VALID,1.70149,
2004-05-12, 03:24:00,VALID,916.87,VALID,0.2,VALID,100,VALID,0,VALID,20.9352,VALID,355,VALID,0.924253,
2004-05-12, 03:25:00,VALID,916.856,VALID,0,VALID,100,VALID,-0.0339617,VALID,20.9314,VALID,320,VALID,1.52943,
2004-05-12, 03:26:01,VALID,916.854,VALID,0,VALID,100,VALID,-0.0169808,VALID,20.9118,VALID,295,VALID,0.552083,
2004-05-12, 03:27:01,VALID,916.847,VALID,0,VALID,100,VALID,-0.0169808,VALID,20.9172,VALID,29,VALID,1.21322,
2004-05-12, 03:28:00,VALID,916.841,VALID,0,VALID,100,VALID,-0.0169808,VALID,20.9376,VALID,25,VALID,0.353468,
2004-05-12, 03:29:00,VALID,916.816,VALID,0,VALID,100,VALID,-0.0169808,VALID,20.9436,VALID,26,VALID,0.938988,
2004-05-12, 03:30:00,VALID,916.794,VALID,0,VALID,99.9697,VALID,-0.0169808,VALID,20.9376,VALID,47,VALID,0.855378,
2004-05-12, 03:31:00,VALID,916.775,VALID,0,VALID,99.9634,VALID,0,VALID,20.9368,VALID,42,VALID,0.624809,
2004-05-12, 03:32:00,VALID,916.755,VALID,0,VALID,99.957,VALID,0,VALID,20.96,VALID,43,VALID,0.0427827,
2004-05-12, 03:33:00,VALID,916.75,VALID,0,VALID,99.9316,VALID,0,VALID,20.9635,VALID,52,VALID,0.59593,
2004-05-12, 03:34:00,VALID,916.753,VALID,0,VALID,99.9608,VALID,0,VALID,20.967,VALID,93,VALID,1.25937,